Location: Sebastopol
(38.4021°N, 122.8239°W)
Time: 14:36:26
(UTC+00:00)

Cosmos 2369 - Pass Details

Date: 29 October 2020
Orbit: 841 x 854 km, 71.0° (Epoch: 01 December)

Event Time Altitude Azimuth Distance (km) Brightness Sun altitude
Exits shadow 12:08:25 24° 357° (N) 1,704 5.3 -29.2°
Maximum altitude 12:11:42 51° 63° (ENE) 1,049 4.4 -28.6°
Drops below altitude 10° 12:17:10 10° 139° (SE) 2,450 6.5 -27.5°
Sets 12:19:40 0° 145° (SE) 3,381 7.2 -27.1°
